GW3028 Weather Reports


time (UTC)temp
C
wind
direction
speed
KPH
gust
KPH
rain 1hr
cm
rain 24hr
cm
rain mn
cm
humidity
%
barometer
mb
20260504120214 -17 0.0 0.0 0.00 0.00 0.00 1011.7
20260504110641 -17 0.0 0.0 0.00 0.00 0.00 1012.1
20260504110137 -17 0.0 0.0 0.00 0.00 0.00 1011.9
20260504100557 -17 0.0 0.0 0.00 0.00 0.00 1011.8
20260504081950 -17 0.0 0.0 0.00 0.00 0.00 1011.9
20260504081448 -17 0.0 0.0 0.00 0.00 0.00 1012.0
20260504080943 -17 0.0 0.0 0.00 0.00 0.00 1011.9
20260504080440 -17 0.0 0.0 0.00 0.00 0.00 1012.0
20260504070408 -17 0.0 0.0 0.00 0.00 0.00 1011.9
20260504050750 2 314 3.2 3.2 0.00 0.00 0.00 81 1011.6
20260504050247 2 351 1.6 3.2 0.00 0.00 0.00 81 1011.5
20260504045744 2 12 0.0 0.0 0.00 0.00 0.00 81 1011.4
20260504045239 2 351 0.0 0.0 0.00 0.00 0.00 81 1011.5
20260504044737 2 12 0.0 0.0 0.00 0.00 0.00 81 1011.3
20260504044234 2 30 0.0 0.0 0.00 0.00 0.00 81 1011.5
20260504043731 2 2 1.6 1.6 0.00 0.00 0.00 80 1011.3
20260504043228 2 329 1.6 3.2 0.00 0.00 0.00 80 1011.2
20260504042726 2 347 1.6 1.6 0.00 0.00 0.00 80 1011.3
20260504042222 2 359 1.6 1.6 0.00 0.00 0.00 80 1011.2
20260504041718 2 352 1.6 1.6 0.00 0.00 0.00 80 1011.2
20260504041214 2 355 1.6 1.6 0.00 0.00 0.00 80 1011.3
20260504040711 2 262 1.6 1.6 0.00 0.00 0.00 80 1011.0
20260504040208 2 295 1.6 1.6 0.00 0.00 0.00 79 1011.0
20260504035704 2 2 1.6 1.6 0.00 0.00 0.00 79 1011.1
20260504035202 2 339 1.6 3.2 0.00 0.00 0.00 79 1011.1
20260504034659 3 8 1.6 1.6 0.00 0.00 0.00 79 1010.8
20260504034156 3 350 1.6 1.6 0.00 0.00 0.00 78 1010.8
20260504033654 3 290 1.6 3.2 0.00 0.00 0.00 78 1011.0
20260504033151 3 302 1.6 3.2 0.00 0.00 0.00 78 1010.7
20260504032647 3 275 3.2 3.2 0.00 0.00 0.00 78 1011.0
20260504032145 3 297 1.6 1.6 0.00 0.00 0.00 78 1011.2
20260504031642 3 299 1.6 1.6 0.00 0.00 0.00 77 1011.1
20260504031138 3 348 1.6 1.6 0.00 0.00 0.00 77 1011.1
20260504030635 3 289 3.2 3.2 0.00 0.00 0.00 77 1011.1
20260504030131 3 337 1.6 3.2 0.00 0.00 0.00 76 1011.2
20260504025628 3 333 1.6 1.6 0.00 0.00 0.00 76 1011.1
20260504025125 3 286 3.2 3.2 0.00 0.00 0.00 76 1011.1
20260504024622 3 334 1.6 3.2 0.00 0.00 0.00 75 1011.0
20260504024119 3 291 1.6 3.2 0.00 0.00 0.00 75 1011.2
20260504023616 4 294 1.6 1.6 0.00 0.00 0.00 74 1011.1
20260504023111 4 303 1.6 3.2 0.00 0.00 0.00 75 1011.1
20260504022608 4 288 1.6 3.2 0.00 0.00 0.00 74 1011.0
20260504022104 4 296 3.2 3.2 0.00 0.00 0.00 74 1011.0
20260504021602 5 284 3.2 3.2 0.00 0.00 0.00 74 1011.2
20260504021059 5 299 1.6 1.6 0.00 0.00 0.00 73 1011.2
20260504020555 5 273 1.6 3.2 0.00 0.00 0.00 73 1011.3
20260504020052 5 276 3.2 3.2 0.00 0.00 0.00 73 1011.0
20260504015548 5 279 3.2 3.2 0.00 0.00 0.00 72 1011.2
20260504015044 5 290 3.2 3.2 0.00 0.00 0.00 72 1011.0
20260504014541 5 297 3.2 3.2 0.00 0.00 0.00 71 1010.8
20260504014038 5 256 3.2 3.2 0.00 0.00 0.00 71 1010.7
20260504013535 5 281 1.6 3.2 0.00 0.00 0.00 70 1010.8
20260504013032 5 289 3.2 3.2 0.00 0.00 0.00 70 1010.8
20260504012529 6 299 1.6 1.6 0.00 0.00 0.00 70 1011.1
20260504012022 6 290 3.2 3.2 0.00 0.00 0.00 68 1010.7
20260504011518 6 261 3.2 3.2 0.00 0.00 0.00 68 1010.7
20260504011014 6 291 3.2 3.2 0.00 0.00 0.00 67 1010.7
20260504010510 6 282 3.2 3.2 0.00 0.00 0.00 67 1010.4
20260504010006 6 281 3.2 3.2 0.00 0.00 0.00 66 1010.4
20260504005503 7 296 3.2 3.2 0.00 0.00 0.00 65 1010.7
20260504005001 7 296 3.2 3.2 0.00 0.00 0.00 64 1010.5
20260504004458 7 304 3.2 3.2 0.00 0.00 0.00 62 1010.5
20260504003955 7 292 1.6 1.6 0.00 0.00 0.00 62 1010.3
20260504003451 7 293 3.2 3.2 0.00 0.00 0.00 62 1010.2
20260504002948 8 300 3.2 3.2 0.00 0.00 0.00 60 1010.2
20260504002445 8 2 0.0 0.0 0.00 0.00 0.00 60 1010.1
20260504001942 8 342 1.6 1.6 0.00 0.00 0.00 59 1010.2
20260504001440 8 338 1.6 1.6 0.00 0.00 0.00 57 1010.0
20260504000936 9 302 1.6 1.6 0.00 0.00 0.00 58 1009.9
20260504000433 10 327 1.6 1.6 0.00 0.00 0.00 56 1009.9
20260503235930 10 353 1.6 1.6 0.00 0.00 0.00 55 1009.9
20260503235428 10 2 0.0 0.0 0.00 0.00 0.00 55 1009.7
20260503234925 10 16 0.0 1.6 0.00 0.00 0.00 50 1009.7
20260503234423 11 67 0.0 0.0 0.00 0.00 0.00 50 1009.7
20260503233921 11 81 0.0 0.0 0.00 0.00 0.00 48 1009.6
20260503233417 12 48 0.0 0.0 0.00 0.00 0.00 42 1009.7
20260503232913 12 345 6.4 8.0 0.00 0.00 0.00 40 1009.9
20260503232411 12 304 4.8 8.0 0.00 0.00 0.00 40 1009.6
20260503231908 12 18 4.8 4.8 0.00 0.00 0.00 38 1009.5
20260503231405 12 236 3.2 8.0 0.00 0.00 0.00 39 1009.7
20260503230901 13 302 9.7 12.9 0.00 0.00 0.00 38 1009.6
20260503230358 13 289 3.2 4.8 0.00 0.00 0.00 38 1009.5
20260503225856 13 333 3.2 3.2 0.00 0.00 0.00 37 1009.3
20260503225352 13 281 11.3 12.9 0.00 0.00 0.00 37 1009.2
20260503224848 13 198 4.8 8.0 0.00 0.00 0.00 35 1009.6
20260503224345 13 282 4.8 4.8 0.00 0.00 0.00 36 1009.5
20260503223843 13 281 9.7 16.1 0.00 0.00 0.00 36 1009.5
20260503223341 13 296 11.3 12.9 0.00 0.00 0.00 35 1009.4
20260503222836 13 353 1.6 1.6 0.00 0.00 0.00 35 1009.4
20260503222335 13 249 3.2 3.2 0.00 0.00 0.00 35 1009.5
20260503221832 13 291 14.5 22.5 0.00 0.00 0.00 35 1009.4
20260503221331 13 316 12.9 14.5 0.00 0.00 0.00 34 1009.4
20260503220826 13 330 16.1 20.9 0.00 0.00 0.00 34 1009.5
20260503220324 13 282 1.6 3.2 0.00 0.00 0.00 34 1009.4
20260503215820 13 239 6.4 9.7 0.00 0.00 0.00 34 1009.2
20260503215318 13 259 11.3 12.9 0.00 0.00 0.00 33 1009.0
20260503214815 13 230 6.4 8.0 0.00 0.00 0.00 36 1009.3
20260503214312 13 273 3.2 4.8 0.00 0.00 0.00 34 1008.9
20260503213810 13 312 1.6 3.2 0.00 0.00 0.00 37 1009.2
20260503213307 13 97 3.2 3.2 0.00 0.00 0.00 32 1008.9
20260503212758 13 318 9.7 11.3 0.00 0.00 0.00 32 1009.0
20260503212256 13 193 3.2 3.2 0.00 0.00 0.00 32 1009.1
20260503211753 13 276 4.8 8.0 0.00 0.00 0.00 34 1009.1
20260503211250 13 290 12.9 16.1 0.00 0.00 0.00 31 1008.7
20260503210744 14 287 19.3 20.9 0.00 0.00 0.00 29 1008.7
20260503210242 14 223 14.5 17.7 0.00 0.00 0.00 32 1008.6
20260503205743 15 255 8.0 11.3 0.00 0.00 0.00 31 1009.0
20260503205239 14 310 6.4 9.7 0.00 0.00 0.00 30 1008.9
20260503204736 14 222 8.0 11.3 0.00 0.00 0.00 30 1008.8
20260503204233 13 31 3.2 4.8 0.00 0.00 0.00 30 1009.1
20260503203731 13 43 6.4 9.7 0.00 0.00 0.00 34 1008.9
20260503203228 13 193 3.2 3.2 0.00 0.00 0.00 32 1009.0
20260503202725 13 257 12.9 14.5 0.00 0.00 0.00 33 1009.1
20260503202223 14 235 17.7 20.9 0.00 0.00 0.00 30 1009.1
20260503201721 13 317 9.7 11.3 0.00 0.00 0.00 29 1008.9
20260503201218 13 243 17.7 22.5 0.00 0.00 0.00 30 1009.4
20260503200714 13 276 27.4 37.0 0.00 0.00 0.00 29 1009.0
20260503200211 13 300 12.9 14.5 0.00 0.00 0.00 31 1009.1
20260503195707 13 122 3.2 8.0 0.00 0.00 0.00 29 1009.1
20260503195205 13 229 8.0 9.7 0.00 0.00 0.00 29 1009.3
20260503194701 13 284 12.9 14.5 0.00 0.00 0.00 33 1009.5
20260503194157 13 205 1.6 1.6 0.00 0.00 0.00 30 1009.5
20260503193654 13 35 8.0 11.3 0.00 0.00 0.00 29 1009.9
20260503193149 13 279 8.0 14.5 0.00 0.00 0.00 32 1009.8
20260503192645 12 313 6.4 9.7 0.00 0.00 0.00 35 1009.4
20260503192141 12 295 24.1 35.4 0.00 0.00 0.00 31 1009.3
20260503191638 12 33 14.5 16.1 0.00 0.00 0.00 33 1009.6
20260503191135 12 191 8.0 11.3 0.00 0.00 0.00 32 1009.7
20260503190632 12 264 8.0 12.9 0.00 0.00 0.00 31 1009.9
20260503190129 12 162 4.8 8.0 0.00 0.00 0.00 35 1009.8
20260503185625 12 317 4.8 8.0 0.00 0.00 0.00 32 1010.1
20260503185120 12 220 9.7 9.7 0.00 0.00 0.00 33 1010.2
20260503184610 12 267 25.7 33.8 0.00 0.00 0.00 32 1010.0
20260503184107 12 290 19.3 24.1 0.00 0.00 0.00 32 1009.7
20260503183603 12 244 16.1 24.1 0.00 0.00 0.00 31 1010.1
20260503183101 11 322 6.4 11.3 0.00 0.00 0.00 33 1010.1
20260503182559 12 270 12.9 14.5 0.00 0.00 0.00 33 1010.3
20260503182057 11 287 11.3 12.9 0.00 0.00 0.00 32 1010.2
20260503181554 12 294 14.5 22.5 0.00 0.00 0.00 32 1010.4
20260503181050 11 177 4.8 8.0 0.00 0.00 0.00 32 1010.4
20260503180547 11 36 9.7 16.1 0.00 0.00 0.00 34 1010.3
20260503180045 11 268 8.0 9.7 0.00 0.00 0.00 34 1010.5
20260503175541 11 3 6.4 8.0 0.00 0.00 0.00 33 1010.4
20260503175039 11 318 4.8 8.0 0.00 0.00 0.00 34 1010.4
20260503174536 11 296 9.7 12.9 0.00 0.00 0.00 36 1010.5
20260503174032 11 84 8.0 9.7 0.00 0.00 0.00 35 1010.4
20260503173527 10 278 11.3 11.3 0.00 0.00 0.00 36 1010.6
20260503173024 11 237 6.4 8.0 0.00 0.00 0.00 38 1010.8
20260503172522 11 330 9.7 14.5 0.00 0.00 0.00 34 1010.5
20260503172018 10 345 11.3 16.1 0.00 0.00 0.00 35 1010.5
20260503171515 10 292 16.1 17.7 0.00 0.00 0.00 35 1011.0
20260503171012 10 258 8.0 9.7 0.00 0.00 0.00 38 1010.7
20260503170508 10 343 11.3 14.5 0.00 0.00 0.00 36 1010.7
20260503150901 7 242 12.9 20.9 0.00 0.00 0.00 47 1011.7
20260503150357 7 69 4.8 8.0 0.00 0.00 0.00 45 1011.7
20260503131250 6 315 11.3 14.5 0.00 0.00 0.00 53 1011.9
20260503130748 6 100 6.4 9.7 0.00 0.00 0.00 55 1012.0
20260503130245 6 14 6.4 8.0 0.00 0.00 0.00 59 1012.1